Location: Valdosta
(30.8330°N, 83.2790°W)
Time: 17:23:29
(UTC-04:00)

Amateur Radio Satellites - All Passes

Search period start: 24 April 2014 16:53
Search period end: 25 April 2014 16:53
Location: Valdosta, 30.8330°N, 83.2790°W

Satellite Date Start Highest point End Downlink Frequencies (MHz)
Time Altitude Azimuth
Gurwin Techsat 1B 24 Apr 16:53:29 16:57:39 24° 264° (W) 17:01:51 435.225 FM
AO-7 24 Apr 17:26:30 17:34:47 82° 254° (WSW) 17:43:06 29.400 - 29.500 MHz
OPAL 24 Apr 17:29:53 17:33:43 21° 294° (WNW) 17:37:31 ?
UOSAT-12 24 Apr 17:33:49 17:37:48 30° 304° (NW) 17:41:52 437.025 FM, 437.400 FM
TMSAT-1 24 Apr 17:40:59 17:42:31 11° 267° (W) 17:44:03 436.925 FM
Uosat F 24 Apr 17:52:06 17:56:03 23° 263° (W) 18:00:02 435.120 FM
Hamsat 24 Apr 18:34:20 18:38:02 31° 73° (ENE) 18:41:47 145.90 MHz
Saudisat 1A 24 Apr 18:48:21 18:50:59 15° 52° (NE) 18:53:36 436.775 MHz
RS-15 24 Apr 18:51:25 18:57:46 17° 259° (W) 19:04:16 29.354 - 29.394 USB, Beacon 29.352 USB
JAS-2 24 Apr 19:18:42 19:23:51 35° 73° (ENE) 19:28:39 435.800 - 435.900 CW/SSB, 435.910 FM
SO-67 24 Apr 19:23:46 19:25:57 16° 72° (ENE) 19:28:08 435.3500 MHz FM
AO-7 24 Apr 19:26:14 19:28:24 11° 267° (W) 19:30:35 29.400 - 29.500 MHz
Hamsat 24 Apr 20:11:33 20:14:02 15° 266° (W) 20:16:34 145.90 MHz
STRAND 1 24 Apr 20:16:07 20:21:14 89° 105° (ESE) 20:26:20 ?
Saudisat 1A 24 Apr 20:26:37 20:30:45 42° 247° (WSW) 20:34:51 436.775 MHz
MaSat-1 24 Apr 20:52:39 20:55:41 80° 292° (WNW) 20:58:21 437.345 MHz
SO-67 24 Apr 20:56:20 20:58:54 19° 264° (W) 21:01:29 435.3500 MHz FM
JAS-2 24 Apr 21:04:35 21:08:56 22° 263° (W) 21:13:02 435.800 - 435.900 CW/SSB, 435.910 FM
HO-68 24 Apr 21:26:26 21:33:10 48° 70° (ENE) 21:39:57 435.675 MHz FM
ISS 24 Apr 21:28:44 21:32:04 71° 45° (NE) 21:35:23 145.800 FM
Oscar 11 24 Apr 22:04:25 22:08:07 29° 72° (ENE) 22:11:51 145.825 FM, Beacon 2401.500 USB
PCSat 24 Apr 22:34:45 22:37:20 14° 103° (ESE) 22:39:55 145.825 MHz
HO-68 24 Apr 23:15:18 23:20:58 26° 263° (W) 23:26:42 435.675 MHz FM
Sapphire 24 Apr 23:30:42 23:35:53 49° 110° (ESE) 23:41:04 437.095 MHz 1200 baud AX-25 AFSK
Oscar 11 24 Apr 23:41:25 23:44:17 17° 265° (W) 23:47:10 145.825 FM, Beacon 2401.500 USB
FUNcube-1 24 Apr 23:47:31 23:51:35 50° 260° (W) 23:55:38 145.950 - 145.970 MHz USB
PCSat 25 Apr 00:14:52 00:20:10 58° 297° (WNW) 00:25:30 145.825 MHz
SO-50 25 Apr 00:18:14 00:22:55 75° 62° (ENE) 00:27:39 436.795 FM
Sapphire 25 Apr 01:15:48 01:19:31 19° 305° (NW) 01:23:16 437.095 MHz 1200 baud AX-25 AFSK
KITSAT 1 25 Apr 01:45:11 01:52:52 49° 109° (ESE) 02:00:35 435.175 FM
UOSAT-12 25 Apr 02:07:57 02:12:34 51° 60° (ENE) 02:17:06 437.025 FM, 437.400 FM
Uribyol 2 25 Apr 02:26:42 02:29:19 14° 94° (E) 02:31:57 436.500 FM
OPAL 25 Apr 03:00:07 03:04:40 36° 70° (ENE) 03:09:18 ?
Oscar 19 25 Apr 03:08:10 03:13:23 81° 103° (ESE) 03:18:34 437.125 CW, 437.150 USB
AO-27 25 Apr 03:08:11 03:13:00 39° 99° (E) 03:17:48 436.795 MHz FM
ITAMSAT 1 25 Apr 03:17:08 03:22:08 47° 100° (E) 03:27:06 435.822 SSB
Oscar 16 25 Apr 03:17:33 03:22:45 76° 284° (WNW) 03:27:56 437.025 USB, Beacon 2401.1428
Gurwin Techsat 1B 25 Apr 03:35:21 03:39:15 21° 95° (E) 03:43:07 435.225 FM
KITSAT 1 25 Apr 03:41:23 03:48:25 32° 306° (NW) 03:55:29 435.175 FM
UOSAT-12 25 Apr 03:50:12 03:52:12 13° 253° (WSW) 03:54:12 437.025 FM, 437.400 FM
AO-Echo 25 Apr 04:01:54 04:06:35 68° 284° (WNW) 04:11:13 ?
Uribyol 2 25 Apr 04:03:59 04:09:00 52° 286° (WNW) 04:14:01 436.500 FM
TMSAT-1 25 Apr 04:18:44 04:23:42 40° 99° (E) 04:28:38 436.925 FM
Uosat F 25 Apr 04:27:33 04:30:09 14° 94° (E) 04:32:45 435.120 FM
PANSAT 25 Apr 04:31:20 04:32:12 11° 154° (SSE) 04:33:05 not established
OPAL 25 Apr 04:39:57 04:43:35 20° 263° (W) 04:47:16 ?
JAS-1B 25 Apr 04:41:21 04:46:33 33° 100° (E) 04:52:16 435.800 - 435.900 CW/SSB
RS-15 25 Apr 04:44:15 04:51:40 20° 102° (ESE) 04:58:52 29.354 - 29.394 USB, Beacon 29.352 USB
AO-27 25 Apr 04:48:33 04:52:11 20° 292° (WNW) 04:55:49 436.795 MHz FM
ITAMSAT 1 25 Apr 04:58:05 05:01:11 16° 293° (WNW) 05:04:17 435.822 SSB
Gurwin Techsat 1B 25 Apr 05:14:24 05:19:14 37° 288° (WNW) 05:24:04 435.225 FM
AO-7 25 Apr 05:34:27 05:42:27 49° 102° (ESE) 05:50:26 29.400 - 29.500 MHz
TMSAT-1 25 Apr 05:59:34 06:03:16 20° 292° (WNW) 06:06:57 436.925 FM
Uosat F 25 Apr 06:04:19 06:09:06 47° 287° (WNW) 06:13:53 435.120 FM
PANSAT 25 Apr 06:08:27 06:11:56 32° 164° (SSE) 06:15:27 not established
JAS-1B 25 Apr 06:32:27 06:37:05 26° 290° (WNW) 06:42:05 435.800 - 435.900 CW/SSB
AO-40 25 Apr 06:42:50 09:53:29 27° 125° (SE) 11:16:37 Beacon 2401.320
RS-15 25 Apr 06:51:17 07:02:46 82° 297° (WNW) 07:13:51 29.354 - 29.394 USB, Beacon 29.352 USB
MaSat-1 25 Apr 06:57:48 07:01:12 82° 69° (ENE) 07:05:18 437.345 MHz
STRAND 1 25 Apr 07:26:33 07:31:39 74° 76° (ENE) 07:36:44 ?
AO-7 25 Apr 07:27:51 07:34:50 31° 297° (WNW) 07:41:50 29.400 - 29.500 MHz
PANSAT 25 Apr 07:48:07 07:51:56 59° 176° (S) 07:55:46 not established
Hamsat 25 Apr 08:00:54 08:05:12 57° 284° (WNW) 08:09:28 145.90 MHz
JAS-2 25 Apr 08:16:07 08:21:48 55° 101° (ESE) 08:28:12 435.800 - 435.900 CW/SSB, 435.910 FM
SO-67 25 Apr 08:25:16 08:28:34 39° 99° (E) 08:31:51 435.3500 MHz FM
Sapphire 25 Apr 08:26:02 08:28:40 14° 52° (NE) 08:31:17 437.095 MHz 1200 baud AX-25 AFSK
Saudisat 1A 25 Apr 08:50:45 08:52:54 13° 108° (ESE) 08:55:02 436.775 MHz
PCSat 25 Apr 09:08:31 09:13:28 35° 60° (ENE) 09:18:23 145.825 MHz
RS-15 25 Apr 09:09:15 09:16:54 20° 320° (NW) 09:24:29 29.354 - 29.394 USB, Beacon 29.352 USB
PANSAT 25 Apr 09:28:15 09:32:01 50° 189° (S) 09:35:47 not established
JAS-2 25 Apr 10:02:54 10:06:33 17° 292° (WNW) 10:10:27 435.800 - 435.900 CW/SSB, 435.910 FM
Sapphire 25 Apr 10:07:11 10:12:34 70° 248° (WSW) 10:17:55 437.095 MHz 1200 baud AX-25 AFSK
Saudisat 1A 25 Apr 10:27:48 10:32:04 44° 301° (WNW) 10:36:21 436.775 MHz
HO-68 25 Apr 10:47:07 10:54:20 83° 105° (ESE) 11:01:31 435.675 MHz FM
PCSat 25 Apr 10:52:24 10:56:37 24° 254° (WSW) 11:00:50 145.825 MHz
PANSAT 25 Apr 11:08:54 11:11:55 22° 201° (SSW) 11:14:56 not established
Oscar 11 25 Apr 11:32:55 11:37:14 63° 284° (WNW) 11:41:32 145.825 FM, Beacon 2401.500 USB
KITSAT 1 25 Apr 11:39:24 11:47:16 52° 60° (ENE) 11:55:02 435.175 FM
FUNcube-1 25 Apr 11:41:51 11:46:02 45° 100° (E) 11:50:18 145.950 - 145.970 MHz USB
ISS 25 Apr 12:30:49 12:33:46 30° 129° (SE) 12:36:43 145.800 FM
HO-68 25 Apr 12:37:21 12:41:07 15° 300° (WNW) 12:44:54 435.675 MHz FM
FUNcube-1 25 Apr 13:20:17 13:22:03 12° 291° (WNW) 13:23:49 145.950 - 145.970 MHz USB
KITSAT 1 25 Apr 13:35:39 13:42:09 28° 255° (WSW) 13:48:39 435.175 FM
Uribyol 2 25 Apr 13:40:18 13:42:31 13° 65° (ENE) 13:44:43 436.500 FM
RS-15 25 Apr 13:49:37 13:56:04 17° 36° (NE) 14:02:32 29.354 - 29.394 USB, Beacon 29.352 USB
ISS 25 Apr 14:08:03 14:10:29 19° 323° (NW) 14:12:56 145.800 FM
Oscar 19 25 Apr 14:19:33 14:24:38 66° 75° (ENE) 14:29:45 437.125 CW, 437.150 USB
AO-27 25 Apr 14:21:11 14:25:49 34° 71° (ENE) 14:30:28 436.795 MHz FM
SO-50 25 Apr 14:28:06 14:32:35 90° 298° (WNW) 14:37:05 436.795 FM
Oscar 16 25 Apr 14:28:58 14:34:06 89° 77° (ENE) 14:39:17 437.025 USB, Beacon 2401.1428
ITAMSAT 1 25 Apr 14:29:55 14:34:45 41° 72° (ENE) 14:39:34 435.822 SSB
Gurwin Techsat 1B 25 Apr 14:51:35 14:55:19 20° 68° (ENE) 14:59:02 435.225 FM
AO-Echo 25 Apr 15:08:48 15:14:02 85° 77° (ENE) 15:19:08 ?
Uribyol 2 25 Apr 15:16:21 15:21:25 60° 259° (WSW) 15:26:31 436.500 FM
OPAL 25 Apr 15:16:42 15:19:48 16° 96° (E) 15:22:53 ?
JAS-1B 25 Apr 15:21:59 15:27:17 21° 68° (ENE) 15:32:02 435.800 - 435.900 CW/SSB
TMSAT-1 25 Apr 15:34:15 15:39:03 37° 72° (ENE) 15:43:52 436.925 FM
Uosat F 25 Apr 15:36:58 15:38:41 12° 65° (ENE) 15:40:25 435.120 FM
RS-15 25 Apr 15:59:49 16:10:47 69° 61° (ENE) 16:22:04 29.354 - 29.394 USB, Beacon 29.352 USB
AO-27 25 Apr 16:01:25 16:05:19 22° 264° (W) 16:09:14 436.795 MHz FM
Oscar 19 25 Apr 16:03:38 16:04:19 10° 268° (W) 16:05:00 437.125 CW, 437.150 USB
ITAMSAT 1 25 Apr 16:10:56 16:14:19 18° 265° (W) 16:17:44 435.822 SSB
UOSAT-12 25 Apr 16:13:54 16:18:17 55° 114° (ESE) 16:22:47 437.025 FM, 437.400 FM
AO-7 25 Apr 16:27:39 16:35:13 41° 66° (ENE) 16:42:47 29.400 - 29.500 MHz
Gurwin Techsat 1B 25 Apr 16:29:59 16:34:56 40° 261° (W) 16:39:54 435.225 FM
